Location: Newark
(22.3060°N, 114.2134°E)
Time: 11:58:34
(UTC+00:00)

Vanguard 2 - Visible Passes

Search period start: 02 August 2021 00:00
Search period end: 12 August 2021 00:00
Orbit: 552 x 2937 km, 32.9° (Epoch: 02 August)

Date Brightness Start Highest point End Pass type
(mag) Time Alt. Az. Time Alt. Az. Time Alt. Az.
02 Aug 8.6 20:46:58 13° WNW 20:49:42 26° N 20:53:36 10° NE visible
03 Aug 9.8 19:02:19 14° ENE 19:02:19 14° ENE 19:02:54 10° ENE visible
03 Aug 9.0 21:04:32 10° WNW 21:07:44 22° N 21:11:27 10° NE visible
04 Aug 9.3 19:19:05 20° NE 19:19:05 20° NE 19:20:32 10° NE visible
04 Aug 9.2 21:22:40 10° NW 21:25:49 21° N 21:29:31 10° NE visible
05 Aug 8.9 19:35:51 24° NNE 19:35:51 24° NNE 19:38:08 10° NE visible
06 Aug 8.7 19:52:37 23° N 19:52:37 23° N 19:55:47 10° NE visible
07 Aug 8.9 20:09:23 17° NNW 20:10:35 19° N 20:13:35 10° NE visible
08 Aug 9.1 20:26:11 12° NW 20:28:38 19° N 20:31:35 10° NE visible
09 Aug 9.1 20:43:40 10° NW 20:46:40 20° N 20:49:49 10° ENE visible
10 Aug 11.0 12:24:20 10° SSE 12:24:49 10° SSE 12:24:49 10° SSE visible
10 Aug 10.1 18:58:25 11° NE 18:58:25 11° NE 18:58:41 10° NE visible
10 Aug 8.9 21:01:24 10° NW 21:04:40 24° NNE 21:08:11 10° ENE visible
11 Aug 10.7 12:37:09 10° S 12:42:22 16° SSE 12:42:22 16° SSE visible
11 Aug 9.7 19:15:17 16° NNE 19:15:17 16° NNE 19:16:30 10° NE visible
11 Aug 8.6 21:19:01 10° NW 21:22:34 31° NNE 21:26:34 10° E visible
